(128636) = 2000 WR84 = 2004 RJ22

Discovered at Kitt Peak on 2004-09-07 by Spacewatch.

Orbit

Orbit type: Main Belt

Note: WebGL enabled browser required.

epoch2024-03-31.0
epoch JD2460400.5
perihelion date2023-08-15.11329
perihelion JD2460171.61329
argument of perihelion (°)60.23291
ascending node (°)348.85175
inclination (°)2.68628
eccentricity0.1281141
perihelion distance (AU)2.4016281
Tisserand w.r.t. Jupiter3.3
ΔV w.r.t. Earth (km/sec)9.8
semimajor axis (AU)2.7545212
mean anomaly (°)49.34637
mean daily motion (°/day)0.21559300
aphelion distance (AU)3.107
period (years)4.57
P-vector [x]0.65475870
P-vector [y]0.67627970
P-vector [z]0.33754526
Q-vector [x]-0.75578365
Q-vector [y]0.59115184
Q-vector [z]0.28165685
absolute magnitude16.27
phase slope0.15
uncertainty0
referenceMPEC 2024-C37
observations used571
oppositions15
arc length (days)8427
first opposition used2000
last opposition used2023
residual rms (arc-secs)0.78
perturbers coarse indicatorM-v
perturbers precise indicator003Ek
first observation date used2000-11-20.0
last observation date used2023-12-17.0
computer nameMPCLINUX
JD of orbit computation2456612.522262
perihelion JD uncertainty (days)1.5627E-04
argument of perihelion uncertainty (°)1.1659E-04
ascending node uncertainty (°)1.1100E-04
inclination uncertainty (°)7.8785E-06
eccentricity uncertainty 5.1877E-08
perihelion distance uncertainty (AU)1.4371E-07
Minimum Orbit Intersection Distances (in AU)
for orbit epoch: 2460200.5, reference: E2024-C37
Mercury2.08539
Venus1.68151
Earth1.41228
Mars0.89541
Jupiter2.25221
Saturn6.49643
Uranus15.4965
Neptune27.3751

Observations

575 total observations over interval: 2000 11 20.31348 – 2023 12 17.464217
These data are available for download (format description).

Date (UT) J2000 RA J2000 Dec Magn Location Ref
2000 11 20.31348 04 17 51.49 +25 47 59.3 20.0   704 – Lincoln Laboratory ETS, New Mexico MPS 22936
2000 11 20.32848 04 17 50.56 +25 47 58.6 19.3   704 – Lincoln Laboratory ETS, New Mexico MPS 22936
2000 11 20.34350 04 17 49.60 +25 47 57.2 19.2   704 – Lincoln Laboratory ETS, New Mexico MPS 22936
2000 11 20.35853 04 17 48.69 +25 47 56.5 19.2   704 – Lincoln Laboratory ETS, New Mexico MPS 22936
2000 11 29.30235 04 08 54.34 +25 29 41.9 18.8   704 – Lincoln Laboratory ETS, New Mexico MPS 22936
2000 11 29.31869 04 08 53.32 +25 29 38.6 19.0   704 – Lincoln Laboratory ETS, New Mexico MPS 22936
2000 11 29.33515 04 08 52.33 +25 29 36.3 19.1   704 – Lincoln Laboratory ETS, New Mexico MPS 22936
2000 11 29.35264 04 08 51.28 +25 29 33.7 19.8   704 – Lincoln Laboratory ETS, New Mexico MPS 22936
2000 11 29.36767 04 08 50.26 +25 29 30.9 19.4   704 – Lincoln Laboratory ETS, New Mexico MPS 22936
2002 04 09.15689 11 29 35.29 +02 25 17.5 21.2 V 291 – LPL/Spacewatch II MPS 115300
2002 04 09.17689 11 29 34.53 +02 25 21.4 21.3 V 291 – LPL/Spacewatch II MPS 115300
2002 04 09.19722 11 29 33.76 +02 25 25.5 21.1 V 291 – LPL/Spacewatch II MPS 115300
2004 08 17.26398 23 31 37.04 -03 40 44.8 19.5   H55 – Astronomical Research Observatory, Charleston MPS 113035
2004 08 17.27994 23 31 36.46 -03 40 47.0 19.3   H55 – Astronomical Research Observatory, Charleston MPS 113035
2004 08 17.29288 23 31 36.00 -03 40 49.8 20.1   H55 – Astronomical Research Observatory, Charleston MPS 113035
2004 09 07.34913 23 16 08.38 -04 55 15.9 19.6 V 691 – Steward Observatory, Kitt Peak-Spacewatch MPS 112830
2004 09 07.37772 23 16 06.87 -04 55 22.9 19.4 V 691 – Steward Observatory, Kitt Peak-Spacewatch MPS 112830
2004 09 07.40565 23 16 05.40 -04 55 29.8 19.5 V 691 – Steward Observatory, Kitt Peak-Spacewatch MPS 112830
2004 09 07.99570 23 15 35.53 -04 57 57.9 19.2 R 615 – St. Veran MPS 112830
2004 09 08.03704 23 15 33.40 -04 58 08.0 19.2 R 615 – St. Veran MPS 112830
2004 09 08.22876 23 15 23.75 -04 58 53.7 19.1   704 – Lincoln Laboratory ETS, New Mexico MPS 112830
2004 09 08.24020 23 15 23.14 -04 58 55.8 19.8   704 – Lincoln Laboratory ETS, New Mexico MPS 112830
2004 09 08.25165 23 15 22.50 -04 58 58.8 19.5   704 – Lincoln Laboratory ETS, New Mexico MPS 112830
2004 09 08.26314 23 15 21.91 -04 59 01.0 19.8   704 – Lincoln Laboratory ETS, New Mexico MPS 112830
2004 09 08.27455 23 15 21.34 -04 59 04.6 19.8   704 – Lincoln Laboratory ETS, New Mexico MPS 112830
2004 09 08.95294 23 14 46.74 -05 01 54.3 18.5 R 615 – St. Veran MPS 112830
2004 09 08.96017 23 14 46.36 -05 01 56.0 18.5 R 615 – St. Veran MPS 112830
2004 09 08.96667 23 14 46.02 -05 01 57.5 18.5 R 615 – St. Veran MPS 112830
2004 09 09.18194 23 14 35.14 -05 02 50.2 19.5   704 – Lincoln Laboratory ETS, New Mexico MPS 112830
2004 09 09.19310 23 14 34.61 -05 02 53.7 19.6   704 – Lincoln Laboratory ETS, New Mexico MPS 112830
2004 09 09.20426 23 14 33.96 -05 02 56.4 19.8   704 – Lincoln Laboratory ETS, New Mexico MPS 112830
2004 09 09.21604 23 14 33.38 -05 02 59.2 19.4   704 – Lincoln Laboratory ETS, New Mexico MPS 112830
2004 09 09.22740 23 14 32.77 -05 03 02.7 19.8   704 – Lincoln Laboratory ETS, New Mexico MPS 112830
2004 09 09.99289 23 13 53.45 -05 06 12.6 18.5 R 615 – St. Veran MPS 112830
2004 09 10.00015 23 13 53.08 -05 06 14.5 18.5 R 615 – St. Veran MPS 112830
2004 09 10.00735 23 13 52.69 -05 06 16.4 18.6 R 615 – St. Veran MPS 112830
2004 09 10.91000 23 13 06.58 -05 10 00.3   246 – Klet Observatory-KLENOT MPS 113035
2004 09 10.91122 23 13 06.48 -05 10 01.1   246 – Klet Observatory-KLENOT MPS 113035
2004 09 11.32035 23 12 45.44 -05 11 41.3 19.5 V 691 – Steward Observatory, Kitt Peak-Spacewatch MPS 113035
2004 09 11.34884 23 12 43.93 -05 11 48.4 19.3 V 691 – Steward Observatory, Kitt Peak-Spacewatch MPS 113035
2004 09 11.37990 23 12 42.27 -05 11 56.0 19.4 V 691 – Steward Observatory, Kitt Peak-Spacewatch MPS 113035
2004 09 14.17830 23 10 19.45 -05 23 26.9 18.9 R 699 – Lowell Observatory-LONEOS MPS 120506
2004 09 14.19776 23 10 18.50 -05 23 32.3   699 – Lowell Observatory-LONEOS MPS 120506
2004 09 14.21725 23 10 17.47 -05 23 36.6   699 – Lowell Observatory-LONEOS MPS 120506
2004 09 14.23672 23 10 16.49 -05 23 40.5   699 – Lowell Observatory-LONEOS MPS 120506
2004 09 17.22946 23 07 45.22 -05 35 45.8 19.4   704 – Lincoln Laboratory ETS, New Mexico MPS 113035
2004 09 17.24123 23 07 44.55 -05 35 47.4 19.8   704 – Lincoln Laboratory ETS, New Mexico MPS 113035
2004 09 17.25297 23 07 44.07 -05 35 51.7 19.9   704 – Lincoln Laboratory ETS, New Mexico MPS 113035
2004 09 17.26471 23 07 43.31 -05 35 52.8 19.9   704 – Lincoln Laboratory ETS, New Mexico MPS 113035
2004 10 03.20402 22 55 59.24 -06 29 30.0 19.6   644 – Palomar Mountain/NEAT MPS 115776
2004 10 03.22608 22 55 58.41 -06 29 33.1 19.8   644 – Palomar Mountain/NEAT MPS 115776
2004 10 03.26390 22 55 56.97 -06 29 39.1 19.9   644 – Palomar Mountain/NEAT MPS 115776
2004 10 06.11345 22 54 19.52 -06 36 27.0 19.8 R 699 – Lowell Observatory-LONEOS MPS 115776
2004 10 06.13047 22 54 18.83 -06 36 29.7   699 – Lowell Observatory-LONEOS MPS 115776
2004 10 06.14752 22 54 18.24 -06 36 31.9   699 – Lowell Observatory-LONEOS MPS 115776
2004 10 06.16454 22 54 17.77 -06 36 33.4   699 – Lowell Observatory-LONEOS MPS 115776
2004 10 09.10388 22 52 48.68 -06 42 26.0 20.1 V 691 – Steward Observatory, Kitt Peak-Spacewatch MPS 116652
2004 10 09.12360 22 52 48.08 -06 42 28.4 20.2 V 691 – Steward Observatory, Kitt Peak-Spacewatch MPS 116652
2004 10 09.15433 22 52 47.16 -06 42 31.6 20.1 V 691 – Steward Observatory, Kitt Peak-Spacewatch MPS 116652
2005 12 25.45742 08 38 02.36 +21 57 54.9 20.3 V 691 – Steward Observatory, Kitt Peak-Spacewatch MPS 156579
2005 12 25.47481 08 38 01.70 +21 57 57.4 20.0 V 691 – Steward Observatory, Kitt Peak-Spacewatch MPS 156579
2005 12 25.49219 08 38 01.04 +21 57 59.9 20.1 V 691 – Steward Observatory, Kitt Peak-Spacewatch MPS 156579
2005 12 29.38732 08 35 29.28 +22 07 42.2   691 – Steward Observatory, Kitt Peak-Spacewatch MPS 156579
2005 12 29.40469 08 35 28.52 +22 07 44.8   691 – Steward Observatory, Kitt Peak-Spacewatch MPS 156579
2005 12 29.42199 08 35 27.76 +22 07 47.5   691 – Steward Observatory, Kitt Peak-Spacewatch MPS 156579
2005 12 30.42204 08 34 44.97 +22 10 24.0 20.1 V G96 – Mt. Lemmon Survey MPS 157766
2005 12 30.42990 08 34 44.58 +22 10 25.2 20.2 V G96 – Mt. Lemmon Survey MPS 157766
2005 12 30.43849 08 34 44.22 +22 10 26.4 20.2 V G96 – Mt. Lemmon Survey MPS 157766
2005 12 30.44689 08 34 43.82 +22 10 27.8 19.9 V G96 – Mt. Lemmon Survey MPS 157766
2006 01 27.23934 08 08 57.19 +23 21 41.4 19.5 V G96 – Mt. Lemmon Survey MPS 161788
2006 01 27.24935 08 08 56.61 +23 21 42.5 19.6 V G96 – Mt. Lemmon Survey MPS 161788
2006 01 27.25486 08 08 56.25 +23 21 43.2 19.6 V G96 – Mt. Lemmon Survey MPS 161788
2006 01 27.26032 08 08 55.93 +23 21 43.8 19.7 V G96 – Mt. Lemmon Survey MPS 161788
2006 02 02.16975 08 03 20.75 +23 31 38.7 20.3 R 701 – Junk Bond Observatory, Sierra Vista MPS 161788
2006 02 02.19006 08 03 19.72 +23 31 40.3 20.4 R 701 – Junk Bond Observatory, Sierra Vista MPS 161788
2006 02 02.21035 08 03 18.48 +23 31 42.1 20.3 R 701 – Junk Bond Observatory, Sierra Vista MPS 161788
2006 02 02.27094 08 03 15.12 +23 31 46.2 19.5 V 703 – Catalina Sky Survey MPS 161788
2006 02 02.27741 08 03 14.61 +23 31 49.1 19.2 V 703 – Catalina Sky Survey MPS 161788
2006 02 02.28394 08 03 14.32 +23 31 49.4 19.4 V 703 – Catalina Sky Survey MPS 161788
2006 02 02.29038 08 03 14.00 +23 31 49.8 19.6 V 703 – Catalina Sky Survey MPS 161788
2006 02 07.26021 07 58 57.10 +23 37 40.4 20.2 V G96 – Mt. Lemmon Survey MPS 162787
2006 02 07.26303 07 58 56.96 +23 37 40.8 20.0 V G96 – Mt. Lemmon Survey MPS 162787
2006 02 07.26593 07 58 56.82 +23 37 40.9 20.3 V G96 – Mt. Lemmon Survey MPS 162787
2006 02 07.26883 07 58 56.67 +23 37 40.9 20.0 V G96 – Mt. Lemmon Survey MPS 162787
2006 02 23.20870 07 49 01.56 +23 41 23.1 20.2 V G96 – Mt. Lemmon Survey MPS 163808
2006 02 23.20936 07 49 01.56 +23 41 22.6 20.7 V G96 – Mt. Lemmon Survey MPS 163808
2006 02 23.21678 07 49 01.30 +23 41 23.0 20.8 V G96 – Mt. Lemmon Survey MPS 163808
2006 02 23.21744 07 49 01.34 +23 41 23.3 21.5 V G96 – Mt. Lemmon Survey MPS 163808
